Location: Clegg Observatory
(38.9178°N, 78.6069°W)
Time: 05:28:36
(UTC-04:00)

Cosmos 1151 Rocket - Visible Passes

Search period start: 29 July 2015 00:00
Search period end: 08 August 2015 00:00
Orbit: 592 x 618 km, 82.5° (Epoch: 28 July)

Date Brightness Start Highest point End Pass type
(mag) Time Alt. Az. Time Alt. Az. Time Alt. Az.
30 Jul 5.7 04:36:38 10° SE 04:39:18 17° E 04:42:08 10° NE visible
31 Jul 4.9 04:48:34 10° SSE 04:52:12 28° E 04:55:54 10° NNE visible
01 Aug 3.9 05:01:00 10° SSE 05:05:07 49° E 05:09:16 10° NNE visible
02 Aug 3.0 05:13:49 10° S 05:18:05 89° E 05:22:22 10° N visible
03 Aug 5.9 03:52:42 10° ESE 03:53:56 11° E 03:55:25 10° ENE visible
03 Aug 3.2 05:26:57 10° SSW 05:31:07 51° W 05:35:17 10° N visible
04 Aug 5.4 04:03:47 10° SE 04:06:47 20° E 04:09:55 10° NE visible
04 Aug 4.0 05:40:27 10° SW 05:44:13 29° WNW 05:47:57 10° NNW visible
05 Aug 4.5 04:16:28 13° SSE 04:19:41 33° E 04:23:32 10° NNE visible
06 Aug 3.4 04:29:56 21° SSE 04:32:36 59° E 04:36:48 10° NNE visible
07 Aug 2.9 04:43:22 27° SSW 04:45:35 78° W 04:49:52 10° N visible
